Weather History for PHOG - October, 2013

Change the Weather History Date:

Saturday, October 5, 2013

  Actual Average Record
Temperature  
Mean Temperature 81 °F 79 °F  
Max Temperature 88 °F 88 °F 96 °F (1973)
Min Temperature 73 °F 70 °F 60 °F (1949)
Degree Days  
Heating Degree Days 0 0  
Month to date heating degree days 0 0  
Since 1 July heating degree days 0 0  
Cooling Degree Days 16 14  
Month to date cooling degree days 72 70  
Year to date cooling degree days 3320 3038  
Growing Degree Days 30 (Base 50)    
Moisture  
Dew Point 65 °F    
Average Humidity 65    
Maximum Humidity 84    
Minimum Humidity 46    
Precipitation  
Precipitation T in 0.03 in 0.32 in (1989)
Month to date precipitation 0.01 0.13  
Year to date precipitation 8.92 11.21  
Snow  
Snow 0.00 in - - ()
Month to date snowfall 0.0  
Since 1 July snowfall 0.0  
Since 1 September snowfall 0.0  
Snow Depth 0.00 in    
Sea Level Pressure  
Sea Level Pressure 29.99 in    
Wind  
Wind Speed 13 mph (NE)    
Max Wind Speed 31 mph    
Max Gust Speed 38 mph    
Visibility 10 miles    
Events Rain    
T = Trace of Precipitation, MM = Missing Value Source: NWS Daily Summary

Daily Weather History Graph

Daily Weather History Graph

Search for Another Location

Airport or City:

Trip Planner

Search our weather history database for the weather conditions in past years. The results will help you decide how hot, cold, wet, or windy it might be!

Date:

Astronomy

Oct. 05, 2013 Rise Set
Actual Time 6:18 AM HST 6:09 PM HST
Civil Twilight 5:55 AM HST 6:31 PM HST
Nautical Twilight 5:30 AM HST 6:57 PM HST
Astronomical Twilight 5:04 AM HST 7:23 PM HST
Moon 6:58 AM HST (10/5) 6:49 PM HST (10/5)
Length of Visible Light 12h 35m
Length of Day
11h 51m
New Moon, 1% of the Moon is Illuminated
Oct 5
New Moon
Oct 11
First Quarter
Oct 18
Full
Oct 26
Last Quarter
Nov 3
New

Hourly Weather History & Observations

Time (HST) Temp. Heat Index Dew Point Humidity Pressure Visibility Wind Dir Wind Speed Gust Speed Precip Events Conditions
12:54 AM 75.0 °F - 64.9 °F 71% 30.00 in 10.0 mi NE 9.2 mph - N/A   Scattered Clouds
1:54 AM 73.9 °F - 68.0 °F 82% 29.99 in 10.0 mi ENE 9.2 mph - N/A   Mostly Cloudy
2:54 AM 73.9 °F - 68.0 °F 82% 30.00 in 10.0 mi ENE 13.8 mph 21.9 mph 0.00 in Rain Light Rain
3:54 AM 75.0 °F - 66.9 °F 76% 29.99 in 10.0 mi NE 8.1 mph - 0.00 in   Overcast
4:54 AM 73.9 °F - 66.9 °F 79% 29.99 in 10.0 mi NNE 6.9 mph - 0.00 in   Overcast
5:54 AM 73.9 °F - 64.9 °F 73% 30.00 in 10.0 mi NE 6.9 mph - N/A   Partly Cloudy
6:54 AM 75.9 °F - 64.9 °F 69% 30.01 in 10.0 mi NNE 9.2 mph - N/A   Partly Cloudy
7:54 AM 79.0 °F - 64.9 °F 62% 30.01 in 10.0 mi NNE 12.7 mph - N/A   Scattered Clouds
8:54 AM 81.0 °F 82.5 °F 64.0 °F 56% 30.02 in 10.0 mi East 16.1 mph 26.5 mph N/A   Scattered Clouds
9:54 AM 82.9 °F 84.0 °F 63.0 °F 51% 30.02 in 10.0 mi ENE 12.7 mph 23.0 mph N/A   Scattered Clouds
10:54 AM 84.9 °F 85.9 °F 63.0 °F 48% 30.01 in 10.0 mi ENE 18.4 mph 26.5 mph N/A   Scattered Clouds
11:54 AM 86.0 °F 87.3 °F 64.0 °F 48% 29.99 in 10.0 mi ENE 23.0 mph 29.9 mph N/A   Scattered Clouds
12:54 PM 84.9 °F 85.9 °F 63.0 °F 48% 29.97 in 10.0 mi East 18.4 mph 32.2 mph N/A   Scattered Clouds
1:54 PM 87.1 °F 88.3 °F 64.0 °F 46% 29.94 in 10.0 mi ENE 20.7 mph 27.6 mph N/A   Mostly Cloudy
2:54 PM 81.0 °F 83.0 °F 66.0 °F 60% 29.94 in 10.0 mi ENE 24.2 mph 33.4 mph N/A   Mostly Cloudy
3:54 PM 79.0 °F - 69.1 °F 72% 29.93 in 10.0 mi NE 23.0 mph 31.1 mph N/A   Scattered Clouds
4:54 PM 77.0 °F - 66.9 °F 71% 29.94 in 10.0 mi ENE 24.2 mph 35.7 mph N/A   Scattered Clouds
5:54 PM 78.1 °F - 64.0 °F 62% 29.96 in 10.0 mi ENE 12.7 mph 26.5 mph N/A   Scattered Clouds
6:54 PM 78.1 °F - 64.9 °F 64% 29.98 in 10.0 mi ENE 13.8 mph 21.9 mph N/A   Overcast
7:54 PM 78.1 °F - 64.0 °F 62% 30.00 in 10.0 mi NE 16.1 mph - N/A   Overcast
8:54 PM 77.0 °F - 64.9 °F 66% 30.02 in 10.0 mi NE 12.7 mph - N/A   Clear
9:54 PM 77.0 °F - 66.0 °F 69% 30.02 in 10.0 mi NE 15.0 mph - N/A   Clear
10:54 PM 75.9 °F - 68.0 °F 76% 30.02 in 10.0 mi NE 16.1 mph - N/A   Clear
11:54 PM 75.0 °F - 68.0 °F 79% 30.01 in 10.0 mi NE 11.5 mph - N/A   Clear